Погода в Чхонджу

Южная Корея     36°37′42″N   127°27′26″E
темп.,
°C
ветер,
м/с
пор.,
м/с
влажн.,
%
обл.,
%
осадки,
мм/ч
давл.,
гПа
погр.,
м
8 марта, пн
пн800:00+4сз118382 0.0 102822
03:00+2зсз118941 0.0 102822
06:00+1з00910 0.0 102722
09:00+5с11750 0.0 1029195
12:00+11св12470 0.0 1028942
15:00+12ссз22360 0.0 10261500
18:00+10зсз23460 0.0 102664
21:00+6з11670 0.0 102722
9 марта, вт
вт900:00+5зсз00740 0.0 102722
03:00+4ююз117750 0.0 102722
06:00+3юз1182100 0.0 102722
09:00+5з1170100 0.0 1027221
12:00+9з3336100 0.0 1026920
15:00+11сз4536100 0.0 1024943
18:00+7зсз3645100 0.0 1025424
21:00+4з2358100 0.0 102783
10 марта, ср
ср1000:00+3з117077 0.0 102822
03:00+2юз117838 0.0 102822
06:00+1св00820 0.0 102922
09:00+5всв22640 0.0 1031257
12:00+12юв24420 0.0 1030810
15:00+15ююв33370 0.0 10271028
18:00+13юв23500 0.0 102864
21:00+8ююз11620 0.0 102922
11 марта, чт
чт1100:00+7ю117033 0.0 103022
03:00+6ююз117267 0.0 102922
06:00+5вюв1174100 0.0 102922
09:00+8всв1162100 0.0 1029133
12:00+13зсз2246100 0.0 1028660
15:00+14сз4341100 0.0 10261052
18:00+11ссз2350100 0.0 1024122
21:00+9юз1154100 0.0 102622
12 марта, пт
пт1200:00+8ююз0160100 0.0 102622
03:00+8ссз1166100 0.1 102522
06:00+6ссв117067 0.1 102522
09:00+9ссв115533 0.1 1026233
12:00+14ссв33420 0.0 10261218
15:00+16ссв34360 0.0 10251741
18:00+14с35480 0.0 1024170
21:00+10ююв23606 0.0 102764